Location: Gwatt
(46.7204°N, 7.6223°E)
Time: 19:08:09
(UTC+00:00)

Transit 2A - Pass Details

Date: 23 January 2021
Orbit: 600 x 958 km, 66.7° (Epoch: 26 February)

Event Time Altitude Azimuth Distance (km) Brightness Sun altitude
Rises 10:00:19 0° 332° (NNW) 3,111 8.5 20.1°
Reaches altitude 10° 10:03:57 10° 358° (N) 2,112 7.8 20.4°
Maximum altitude 10:06:20 14° 29° (NNE) 1,836 7.7 20.5°
Drops below altitude 10° 10:08:37 10° 59° (ENE) 2,026 8.2 20.7°
Sets 10:11:58 0° 86° (E) 2,885 9.2 20.9°
